FW4012 Weather Reports


Display with metric or nautical units.
time (UTC)temp
F
wind
direction
speed
MPH
gust
MPH
rain 1hr
in
rain 24hr
in
rain mn
in
humidity
%
barometer
mb
20260508120735 68 151 2.0 9.0 0.00 0.00 0.00 66 1014.5
20260508120234 68 153 5.0 9.0 0.00 0.00 0.00 65 1014.5
20260508115733 67 124 2.0 9.0 0.00 0.00 0.00 65 1014.6
20260508115233 67 127 3.0 9.0 0.00 0.00 0.00 66 1014.6
20260508114732 67 182 4.0 7.0 0.00 0.00 0.00 63 1014.7
20260508114232 67 184 3.0 9.0 0.00 0.00 0.00 62 1014.7
20260508113730 67 142 5.0 9.0 0.00 0.00 0.00 64 1014.6
20260508113230 67 166 2.0 9.0 0.00 0.00 0.00 65 1014.7
20260508112750 67 130 5.0 9.0 0.00 0.00 0.00 65 1014.7
20260508112250 68 126 5.0 8.0 0.00 0.00 0.00 64 1014.8
20260508111757 68 221 2.0 8.0 0.00 0.00 0.00 63 1014.8
20260508111235 68 231 5.0 11.0 0.00 0.00 0.00 62 1014.8
20260508110756 68 98 6.0 11.0 0.00 0.00 0.00 64 1014.8
20260508110236 69 205 6.0 11.0 0.00 0.00 0.00 65 1014.9
20260508105733 68 170 3.0 9.0 0.00 0.00 0.00 64 1014.8
20260508105230 68 105 4.0 6.0 0.00 0.00 0.00 66 1014.9
20260508104747 67 121 3.0 7.0 0.00 0.00 0.00 65 1014.9
20260508104235 67 125 2.0 9.0 0.00 0.00 0.00 66 1015.0
20260508103735 68 171 6.0 9.0 0.00 0.00 0.00 69 1015.2
20260508103234 67 203 2.0 9.0 0.00 0.00 0.00 66 1015.2
20260508102734 67 164 2.0 10.0 0.00 0.00 0.00 66 1015.2
20260508102233 67 194 4.0 9.0 0.00 0.00 0.00 66 1015.1
20260508101734 66 132 1.0 8.0 0.00 0.00 0.00 67 1015.3
20260508101233 66 163 4.0 8.0 0.00 0.00 0.00 67 1015.2
20260508100725 67 136 3.0 7.0 0.00 0.00 0.00 67 1015.4
20260508100240 66 246 4.0 8.0 0.00 0.00 0.00 70 1015.2
20260508095739 66 41 2.0 9.0 0.00 0.00 0.00 66 1015.2
20260508095311 66 99 3.0 9.0 0.00 0.00 0.00 68 1015.2
20260508094810 66 211 4.0 7.0 0.00 0.00 0.00 70 1015.3
20260508094245 65 164 1.0 4.0 0.00 0.00 0.00 70 1015.3
20260508093745 65 18 3.0 7.0 0.00 0.00 0.00 68 1015.2
20260508093242 66 145 4.0 7.0 0.00 0.00 0.00 69 1015.3
20260508092741 65 173 3.0 7.0 0.00 0.00 0.00 72 1015.3
20260508092240 64 225 3.0 8.0 0.00 0.00 0.00 69 1015.2
20260508091735 64 74 3.0 8.0 0.00 0.00 0.00 68 1015.2
20260508091256 64 105 4.0 8.0 0.00 0.00 0.00 72 1015.2
20260508090736 64 150 2.0 7.0 0.00 0.00 0.00 70 1015.3
20260508090236 64 107 1.0 10.0 0.00 0.00 0.00 71 1015.3
20260508085734 64 77 4.0 10.0 0.00 0.00 0.00 72 1015.2
20260508085236 63 137 3.0 8.0 0.00 0.00 0.00 72 1015.2
20260508084806 63 130 5.0 9.0 0.00 0.00 0.00 72 1015.3
20260508084247 63 108 5.0 11.0 0.00 0.00 0.00 71 1015.3
20260508083746 63 129 4.0 9.0 0.00 0.00 0.00 71 1015.3
20260508083245 63 194 4.0 9.0 0.00 0.00 0.00 69 1015.2
20260508082740 63 144 3.0 10.0 0.00 0.00 0.00 70 1015.2
20260508082241 63 128 6.0 10.0 0.00 0.00 0.00 70 1015.2
20260508081740 63 132 7.0 10.0 0.00 0.00 0.00 69 1015.2
20260508081239 63 134 1.0 8.0 0.00 0.00 0.00 70 1015.2
20260508080759 63 139 3.0 8.0 0.00 0.00 0.00 71 1015.1
20260508080237 63 168 5.0 8.0 0.00 0.00 0.00 71 1015.0
20260508075804 63 135 3.0 8.0 0.00 0.00 0.00 72 1015.1
20260508075241 62 205 1.0 4.0 0.00 0.00 0.00 72 1015.1
20260508074740 62 122 3.0 4.0 0.00 0.00 0.00 71 1015.0
20260508074239 62 210 1.0 3.0 0.00 0.00 0.00 70 1014.9
20260508073737 62 140 1.0 3.0 0.00 0.00 0.00 72 1014.9
20260508073236 62 12 0.0 4.0 0.00 0.00 0.00 71 1014.9
20260508072751 62 24 3.0 4.0 0.00 0.00 0.00 73 1014.8
20260508072251 62 350 1.0 4.0 0.00 0.00 0.00 72 1014.7
20260508071749 62 338 1.0 5.0 0.00 0.00 0.00 75 1014.8
20260508071229 61 14 3.0 5.0 0.00 0.00 0.00 75 1014.8
20260508070729 60 345 2.0 4.0 0.00 0.00 0.00 76 1014.8
20260508070229 60 355 1.0 3.0 0.00 0.00 0.00 78 1014.7
20260508065729 59 355 2.0 3.0 0.00 0.00 0.00 80 1014.6
20260508065228 59 355 1.0 3.0 0.00 0.00 0.00 82 1014.6
20260508064725 58 355 0.0 2.0 0.00 0.00 0.00 84 1014.6
20260508064239 57 355 1.0 2.0 0.00 0.00 0.00 85 1014.5
20260508063738 57 355 0.0 2.0 0.00 0.00 0.00 86 1014.5
20260508063235 56 355 1.0 3.0 0.00 0.00 0.00 87 1014.5
20260508062734 56 355 0.0 3.0 0.00 0.00 0.00 87 1014.4
20260508062235 56 355 0.0 3.0 0.00 0.00 0.00 88 1014.4
20260508061729 56 355 1.0 4.0 0.00 0.00 0.00 88 1014.3
20260508061250 56 355 2.0 4.0 0.00 0.00 0.00 89 1014.3
20260508060746 55 343 1.0 4.0 0.00 0.00 0.00 90 1014.3
20260508060243 55 327 2.0 4.0 0.00 0.00 0.00 90 1014.3
20260508055742 55 338 3.0 4.0 0.00 0.00 0.00 91 1014.2
20260508055255 55 355 2.0 4.0 0.00 0.00 0.00 92 1014.2
20260508054734 55 329 3.0 4.0 0.00 0.00 0.00 93 1014.1
20260508054235 55 11 3.0 4.0 0.00 0.00 0.00 93 1014.2
20260508053752 54 27 1.0 3.0 0.00 0.00 0.00 94 1014.1
20260508053231 54 27 1.0 5.0 0.00 0.00 0.00 94 1014.0
20260508052727 54 27 2.0 6.0 0.00 0.00 0.00 94 1014.0
20260508052225 53 15 4.0 7.0 0.00 0.00 0.00 94 1014.0
20260508051755 53 344 2.0 5.0 0.00 0.00 0.00 94 1013.9
20260508051231 52 14 3.0 5.0 0.00 0.00 0.00 94 1013.8
20260508050729 51 9 2.0 6.0 0.00 0.00 0.00 94 1013.8
20260508050225 50 330 3.0 6.0 0.00 0.00 0.00 94 1013.8
20260508045724 49 332 2.0 4.0 0.00 0.00 0.00 94 1013.8
20260508045242 48 328 2.0 3.0 0.00 0.00 0.00 93 1013.6
20260508044813 48 327 1.0 2.0 0.00 0.00 0.00 92 1013.7
20260508044233 48 327 0.0 1.0 0.00 0.00 0.00 92 1013.7
20260508043733 48 327 0.0 1.0 0.00 0.00 0.00 92 1013.7
20260508043233 48 327 0.0 2.0 0.00 0.00 0.00 92 1013.7
20260508042732 48 327 0.0 3.0 0.00 0.00 0.00 92 1013.6
20260508042251 48 327 2.0 4.0 0.00 0.00 0.00 93 1013.5
20260508041731 48 327 2.0 4.0 0.00 0.00 0.00 93 1013.5
20260508041247 48 326 2.0 4.0 0.00 0.00 0.00 92 1013.5
20260508040725 48 326 1.0 2.0 0.00 0.00 0.00 92 1013.4
20260508040224 48 326 1.0 3.0 0.00 0.00 0.00 92 1013.4
20260508035723 48 326 1.0 4.0 0.00 0.00 0.00 92 1013.4
20260508035252 47 326 2.0 4.0 0.00 0.00 0.00 92 1013.5
20260508034732 47 312 1.0 2.0 0.00 0.00 0.00 92 1013.4
20260508034250 47 312 0.0 0.0 0.00 0.00 0.00 92 1013.5
20260508033750 48 312 0.0 2.0 0.00 0.00 0.00 92 1013.5
20260508033249 47 312 0.0 2.0 0.00 0.00 0.00 92 1013.5
20260508032743 47 312 0.0 2.0 0.00 0.00 0.00 92 1013.5
20260508032242 47 312 0.0 2.0 0.00 0.00 0.00 92 1013.5
20260508031739 47 312 0.0 1.0 0.00 0.00 0.00 92 1013.4
20260508031238 48 312 0.0 2.0 0.00 0.00 0.00 92 1013.4
20260508030734 48 312 1.0 2.0 0.00 0.00 0.00 92 1013.4
20260508030233 48 312 1.0 2.0 0.00 0.00 0.00 92 1013.4
20260508025729 48 312 1.0 2.0 0.00 0.00 0.00 92 1013.3
20260508025230 48 312 1.0 3.0 0.00 0.00 0.00 92 1013.3
20260508024725 48 312 1.0 3.0 0.00 0.00 0.00 92 1013.3
20260508024226 48 311 0.0 2.0 0.00 0.00 0.00 92 1013.2
20260508023727 48 311 0.0 3.0 0.00 0.00 0.00 92 1013.3
20260508023247 47 311 3.0 3.0 0.00 0.00 0.00 91 1013.2
20260508022724 48 338 0.0 0.0 0.00 0.00 0.00 91 1013.3
20260508022248 48 338 0.0 0.0 0.00 0.00 0.00 91 1013.1
20260508021740 48 338 0.0 0.0 0.00 0.00 0.00 91 1013.1
20260508021250 48 338 0.0 0.0 0.00 0.00 0.00 91 1013.2
20260508020748 48 338 0.0 0.0 0.00 0.00 0.00 91 1013.2
20260508020238 48 338 0.0 0.0 0.00 0.00 0.00 91 1013.2
20260508015737 48 338 0.0 2.0 0.00 0.00 0.00 91 1013.3
20260508015237 48 338 0.0 3.0 0.00 0.00 0.00 91 1013.2
20260508014746 48 338 2.0 3.0 0.00 0.00 0.00 91 1013.2
20260508014228 48 338 1.0 2.0 0.00 0.00 0.00 91 1013.2
20260508013727 48 338 1.0 3.0 0.00 0.00 0.00 91 1013.2
20260508013246 48 338 1.0 3.0 0.00 0.00 0.00 91 1013.1
20260508012801 48 340 2.0 3.0 0.00 0.00 0.00 91 1013.1
20260508012308 48 340 1.0 2.0 0.00 0.00 0.00 91 1013.1
20260508011729 49 340 0.0 2.0 0.00 0.00 0.00 91 1013.1
20260508011247 49 340 0.0 3.0 0.00 0.00 0.00 91 1013.1
20260508010727 49 340 2.0 3.0 0.00 0.00 0.00 91 1013.0
20260508010227 48 338 2.0 3.0 0.00 0.00 0.00 91 1013.2
20260508005742 48 333 2.0 3.0 0.00 0.00 0.00 91 1013.2
20260508005305 48 332 2.0 3.0 0.00 0.00 0.00 91 1013.2
20260508004741 48 332 0.0 2.0 0.00 0.00 0.00 91 1013.2
20260508004235 49 332 1.0 2.0 0.00 0.00 0.00 91 1013.3
20260508003734 49 332 0.0 0.0 0.00 0.00 0.00 91 1013.3
20260508003234 49 332 0.0 2.0 0.00 0.00 0.00 91 1013.3
20260508002736 49 332 0.0 3.0 0.00 0.00 0.00 90 1013.3
20260508002233 49 332 1.0 3.0 0.00 0.00 0.00 91 1013.4
20260508001750 49 329 2.0 2.0 0.00 0.00 0.00 91 1013.3
20260508001230 49 329 1.0 3.0 0.00 0.00 0.00 90 1013.3
20260508000727 49 19 0.0 0.0 0.00 0.00 0.00 90 1013.4
20260508000234 49 19 0.0 0.0 0.00 0.00 0.00 90 1013.3
20260507235750 49 19 0.0 0.0 0.00 0.08 0.00 90 1013.3
20260507235251 49 28 0.0 0.0 0.00 0.08 0.00 90 1013.2
20260507233726 49 21 0.0 0.0 0.00 0.08 0.00 90 1013.2
20260507233252 49 20 0.0 0.0 0.00 0.08 0.00 90 1013.2
20260507232750 49 20 0.0 0.0 0.00 0.08 0.00 90 1013.1
20260507232248 50 20 0.0 0.0 0.00 0.08 0.00 90 1013.3
20260507231727 50 20 0.0 1.0 0.00 0.08 0.00 90 1013.3
20260507231227 50 19 0.0 2.0 0.00 0.08 0.00 90 1013.3
20260507230803 50 19 1.0 2.0 0.00 0.08 0.00 90 1013.3
20260507230251 50 19 0.0 0.0 0.00 0.08 0.00 90 1013.4
20260507225809 50 19 0.0 0.0 0.00 0.16 0.00 89 1013.4
20260507225248 50 19 0.0 0.0 0.00 0.16 0.00 89 1013.3
20260507224727 50 19 0.0 0.0 0.00 0.16 0.00 89 1013.3
20260507224242 50 19 0.0 0.0 0.00 0.16 0.00 89 1013.4
20260507223741 50 19 0.0 0.0 0.00 0.16 0.00 89 1013.4
20260507223239 50 19 0.0 1.0 0.00 0.16 0.00 89 1013.3
20260507222740 50 19 0.0 1.0 0.00 0.16 0.00 89 1013.3
20260507222234 50 19 0.0 0.0 0.00 0.16 0.00 88 1013.3
20260507221734 50 19 0.0 0.0 0.00 0.16 0.00 88 1013.3
20260507221232 50 19 0.0 0.0 0.00 0.16 0.00 88 1013.3
20260507220733 50 19 0.0 1.0 0.00 0.16 0.00 88 1013.2
20260507220231 51 19 0.0 1.0 0.00 0.16 0.00 88 1013.2
20260507215731 51 19 0.0 2.0 0.00 0.20 0.04 88 1013.2
20260507215231 51 19 0.0 2.0 0.00 0.20 0.04 88 1013.1
20260507214759 51 19 0.0 2.0 0.00 0.20 0.04 88 1013.1
20260507214239 51 19 0.0 2.0 0.00 0.20 0.04 88 1013.1
20260507213736 51 19 1.0 2.0 0.00 0.20 0.04 87 1013.0
20260507213252 51 19 0.0 2.0 0.00 0.20 0.04 87 1013.0
20260507212730 51 19 0.0 2.0 0.00 0.20 0.04 87 1013.0
20260507212229 52 19 0.0 2.0 0.00 0.20 0.04 87 1012.9
20260507211728 52 19 0.0 0.0 0.00 0.20 0.04 87 1013.0
20260507211242 52 19 0.0 2.0 0.00 0.20 0.04 87 1012.9
20260507210740 52 19 0.0 2.0 0.00 0.20 0.04 87 1013.0
20260507210240 52 19 0.0 0.0 0.00 0.20 0.04 86 1012.9
20260507205739 52 19 0.0 0.0 0.00 0.24 0.04 86 1013.0
20260507205236 53 19 0.0 1.0 0.00 0.24 0.04 86 1013.0
20260507204735 53 19 0.0 4.0 0.00 0.24 0.04 86 1012.8
20260507204233 53 19 0.0 4.0 0.00 0.24 0.04 86 1012.7
20260507203729 53 18 0.0 2.0 0.00 0.24 0.04 86 1012.6
20260507203228 53 233 0.0 0.0 0.00 0.24 0.04 85 1012.7
20260507202756 53 233 0.0 0.0 0.00 0.24 0.04 85 1012.7
20260507202234 53 233 0.0 0.0 0.00 0.24 0.04 85 1012.6
20260507201750 53 233 0.0 0.0 0.00 0.24 0.04 85 1012.5
20260507201227 54 233 0.0 0.0 0.00 0.24 0.04 84 1012.4
20260507200755 54 233 0.0 0.0 0.00 0.24 0.04 84 1012.4
20260507200250 54 233 0.0 0.0 0.00 0.24 0.04 83 1012.4
20260507195730 54 233 0.0 0.0 0.00 0.24 0.04 83 1012.3
20260507195243 55 233 0.0 0.0 0.00 0.24 0.04 83 1012.1
20260507194725 55 233 0.0 0.0 0.00 0.24 0.04 82 1012.1
20260507194242 55 233 0.0 0.0 0.00 0.24 0.04 81 1012.1
20260507193742 55 233 0.0 0.0 0.00 0.24 0.04 81 1012.0
20260507193259 56 233 0.0 0.0 0.00 0.24 0.04 81 1011.9
20260507192733 56 233 0.0 0.0 0.00 0.24 0.04 80 1011.8
20260507192230 57 233 0.0 0.0 0.00 0.24 0.04 80 1011.7
20260507191800 57 233 0.0 0.0 0.00 0.24 0.04 79 1011.7
20260507191238 57 233 0.0 0.0 0.00 0.24 0.04 78 1011.6
20260507190753 58 233 0.0 0.0 0.00 0.24 0.04 77 1011.5
20260507190231 58 233 0.0 0.0 0.00 0.24 0.04 76 1011.5
20260507185731 59 233 0.0 0.0 0.00 0.94 0.04 75 1011.4
20260507185228 59 233 0.0 0.0 0.00 0.94 0.04 74 1011.4
20260507184746 60 233 0.0 0.0 0.00 0.94 0.04 74 1011.4
20260507184253 60 233 0.0 0.0 0.00 0.94 0.04 72 1011.3
20260507183730 61 233 0.0 0.0 0.00 0.94 0.04 71 1011.3
20260507183232 62 233 0.0 0.0 0.00 0.94 0.04 70 1011.3
20260507182732 63 233 0.0 0.0 0.00 0.94 0.04 70 1011.2
20260507182247 63 233 0.0 0.0 0.00 0.94 0.04 67 1011.2
20260507181741 64 233 0.0 1.0 0.00 0.94 0.04 65 1011.1
20260507181238 64 233 0.0 2.0 0.00 0.94 0.04 61 1011.0
20260507180736 65 233 1.0 3.0 0.00 0.94 0.04 60 1011.1
20260507180238 65 234 1.0 3.0 0.00 0.94 0.04 60 1011.0
20260507175729 65 231 2.0 4.0 0.00 1.46 0.04 58 1011.0
20260507175228 66 232 1.0 5.0 0.00 1.46 0.04 57 1010.9
20260507174729 66 219 1.0 5.0 0.00 1.46 0.04 56 1010.9
20260507174229 66 220 2.0 7.0 0.00 1.46 0.04 55 1010.7
20260507173727 67 229 3.0 7.0 0.00 1.46 0.04 55 1010.7
20260507173302 67 242 3.0 5.0 0.00 1.46 0.04 55 1010.7
20260507172739 68 148 3.0 7.0 0.00 1.46 0.04 54 1010.7
20260507172237 69 167 3.0 7.0 0.00 1.46 0.04 53 1010.6
20260507171732 69 208 3.0 6.0 0.00 1.46 0.04 51 1010.6
20260507171232 69 202 3.0 6.0 0.00 1.46 0.04 52 1010.6
20260507170732 70 227 2.0 7.0 0.00 1.46 0.04 51 1010.5
20260507170231 70 175 3.0 7.0 0.00 1.46 0.04 50 1010.6
20260507165730 70 201 3.0 8.0 0.00 1.46 0.04 51 1010.5
20260507165236 70 238 3.0 9.0 0.00 1.46 0.04 50 1010.5
20260507164755 70 244 5.0 9.0 0.00 1.46 0.04 51 1010.5
20260507164228 70 227 4.0 9.0 0.00 1.46 0.04 52 1010.6
20260507163729 70 206 5.0 9.0 0.00 1.46 0.04 51 1010.4
20260507163229 71 190 5.0 9.0 0.00 1.46 0.04 51 1010.4
20260507162729 71 203 5.0 7.0 0.00 1.46 0.04 48 1010.4
20260507162232 71 244 2.0 7.0 0.00 1.46 0.04 48 1010.4
20260507161752 71 280 2.0 8.0 0.00 1.46 0.04 47 1010.3
20260507161226 71 259 3.0 8.0 0.00 1.46 0.04 48 1010.4
20260507160734 71 221 3.0 5.0 0.00 1.46 0.04 49 1010.4
20260507160232 71 261 1.0 6.0 0.00 1.46 0.04 48 1010.3
20260507155731 70 32 0.0 7.0 0.00 1.46 0.04 49 1010.4
20260507155226 71 250 4.0 7.0 0.00 1.46 0.04 46 1010.3
20260507154813 71 246 3.0 8.0 0.00 1.46 0.04 48 1010.4
20260507154252 71 211 5.0 8.0 0.00 1.46 0.04 47 1010.4
20260507153811 71 190 4.0 8.0 0.00 1.46 0.04 51 1010.5
20260507153251 70 280 2.0 8.0 0.00 1.46 0.04 51 1010.3
20260507152750 71 249 5.0 8.0 0.00 1.46 0.04 48 1010.4
20260507152247 71 155 2.0 7.0 0.00 1.46 0.04 49 1010.3
20260507151747 71 199 3.0 9.0 0.00 1.46 0.04 51 1010.4
20260507151245 71 195 5.0 8.0 0.00 1.46 0.04 51 1010.4
20260507150746 72 168 2.0 5.0 0.00 1.46 0.04 51 1010.4
20260507150246 71 228 1.0 7.0 0.00 1.46 0.04 46 1010.4
20260507145742 70 207 2.0 7.0 0.00 1.46 0.04 50 1010.5
20260507145306 71 217 4.0 6.0 0.00 1.46 0.04 50 1010.6
20260507144742 71 296 3.0 6.0 0.00 1.46 0.04 50 1010.5
20260507144243 70 99 1.0 7.0 0.00 1.46 0.04 52 1010.5
20260507143810 69 121 1.0 7.0 0.00 1.46 0.04 53 1010.5
20260507143245 70 121 3.0 7.0 0.00 1.46 0.04 51 1010.6
20260507142741 71 250 3.0 7.0 0.00 1.46 0.04 51 1010.6
20260507142238 71 295 0.0 9.0 0.00 1.46 0.04 52 1010.5
20260507141736 70 243 6.0 9.0 0.00 1.46 0.04 50 1010.7
20260507141232 69 221 3.0 8.0 0.00 1.46 0.04 51 1010.6
20260507140754 69 331 4.0 8.0 0.00 1.46 0.04 51 1010.8
20260507140232 69 29 4.0 8.0 0.00 1.46 0.04 52 1010.8
20260507135731 70 202 1.0 8.0 0.00 1.89 0.04 51 1010.8
20260507135240 70 171 5.0 7.0 0.00 1.89 0.04 54 1010.8
20260507134739 70 126 2.0 9.0 0.00 1.89 0.04 53 1010.8
20260507134238 70 169 3.0 9.0 0.00 1.89 0.04 57 1011.0
20260507133737 71 165 4.0 8.0 0.00 1.89 0.04 55 1011.0
20260507133234 70 216 5.0 8.0 0.00 1.89 0.04 54 1011.0
20260507132731 70 306 3.0 7.0 0.00 1.89 0.04 57 1011.0
20260507132233 70 233 2.0 9.0 0.00 1.89 0.04 56 1011.0
20260507131733 69 207 4.0 10.0 0.00 1.89 0.04 59 1011.0
20260507131235 67 128 4.0 10.0 0.00 1.89 0.04 61 1011.1
20260507130756 67 223 4.0 10.0 0.00 1.89 0.04 58 1011.1
20260507130236 68 180 3.0 10.0 0.00 1.89 0.04 59 1011.4
20260507125730 68 232 4.0 10.0 0.00 3.19 0.04 56 1011.2
20260507125229 69 238 5.0 10.0 0.00 3.19 0.04 53 1011.2
20260507124757 68 257 5.0 8.0 0.00 3.19 0.04 56 1011.3
20260507124253 69 47 1.0 8.0 0.00 3.19 0.04 57 1011.3
20260507123726 69 247 3.0 10.0 0.00 3.19 0.04 59 1011.3
20260507123226 69 236 7.0 10.0 0.00 3.19 0.04 56 1011.3
20260507122726 68 234 5.0 10.0 0.00 3.19 0.04 59 1011.3
20260507122227 68 150 5.0 10.0 0.00 3.19 0.04 60 1011.3
20260507121741 68 187 5.0 11.0 0.00 3.19 0.04 64 1011.3
20260507121312 68 253 7.0 11.0 0.00 3.19 0.04 58 1011.3